Regional Weather Roundup
Issued by NWS Portland, ME

Home | Current Version | Previous Version | Text Only | Print | Product List | Glossary On
Versions: 1 2 3 4 5 6 7 8 9 10 11 12 13 14 15 16 17 18 19 20 21 22 23 24 25 26 27 28 29 30 31 32 33 34 35 36 37 38 39 40 41 42 43 44 45 46 47 48 49 50
000
ASUS41 KGYX 300810
RWRGYX
WEATHER ROUNDUP FOR MAINE AND NEW HAMPSHIRE
NATIONAL WEATHER SERVICE GRAY ME
400 AM EDT THU JUL 30 2015

MEZ002-005-006-010-012-015-018-020-021-024-026-027-029-300900-
MAINE

CITY           SKY/WX    TMP DP  RH WIND       PRES   REMARKS
PORTLAND       PTCLDY    68  66  93 CALM      29.86F
SANFORD        CLEAR     64  59  82 CALM      29.87F
BAR HARBOR     CLEAR     61  61 100 NE3       29.87S
WISCASSET      CLOUDY    65  64  97 CALM      29.87F FOG
ROCKLAND       CLEAR     61  59  94 CALM      29.85S
FRYEBURG       MOCLDY    66  66 100 CALM      29.88S FOG
LEWISTONAUBURN MOCLDY    66  64  94 CALM      29.86S VSB 1
AUGUSTA        FOG       67  66  97 CALM      29.87S VSB 1/4
WATERVILLE     CLEAR     66  63  88 N3        29.84S
BANGOR         CLEAR     63  62  97 CALM      29.87S
GREENVILLE       N/A     64  56  75 SE5       29.89F
MILLINOCKET    CLEAR     59  57  93 CALM      29.90R
HOULTON        PTCLDY    51  50  96 CALM      29.88S
PRESQUE ISLE   PTCLDY    52  48  87 CALM      29.89R
FRENCHVILLE    CLEAR     56  54  93 SE6       29.88F
CARIBOU        CLEAR     55  53  93 CALM      29.87F
$$

NHZ002-005-008-009-011-012-014-300900-
NEW HAMPSHIRE

CITY           SKY/WX    TMP DP  RH WIND       PRES   REMARKS
PORTSMOUTH     CLEAR     72  67  83 W5        29.85F
ROCHESTER      CLEAR     70  66  87 CALM      29.87S
MANCHESTER     CLEAR     72  67  84 CALM      29.86F
CONCORD        CLEAR     67  65  93 CALM      29.88F
LACONIA        PTCLDY    70  66  88 CALM      29.87F
PLYMOUTH       FOG       64  64 100 CALM      29.89S VSB 1/4
BERLIN         FOG       64  63  96 CALM      29.91S VSB 1/4
WHITEFIELD     CLEAR     62  60  93 CALM      29.90F
JAFFREY        CLEAR     65  63  93 CALM      29.93F FOG
KEENE          CLEAR     64  57  77 CALM      29.91S VSB 1
LEBANON        CLEAR     64  61  90 CALM      29.88F
MT WASHINGTON  FOG       55  55 100 W24         N/A  VSB 1/16
$$

VTZ005-007-008-300900-
VERMONT

CITY           SKY/WX    TMP DP  RH WIND       PRES   REMARKS
ST JOHNSBURY     N/A     67  64  90 MISG      29.86F
MONTPELIER     CLEAR     65  62  90 CALM      29.92F
BURLINGTON     CLEAR     70  66  87 CALM      29.83F
$$

MAZ007-012-024-CTZ003-RIZ002-NYZ038-NYZ072-300900-
SOUTHERN NEW ENGLAND AND NY

CITY           SKY/WX    TMP DP  RH WIND       PRES   REMARKS
BOSTON         CLEAR     77  67  71 SW8       29.88S
WORCESTER      CLEAR     72  65  78 W10       29.93F
NANTUCKET      CLOUDY    72  70  93 SW10      29.92F FOG
PROVIDENCE     CLEAR     74  70  87 S5        29.90F
HARTFORD       CLEAR     73  68  84 S6        29.89F
ALBANY         MOCLDY    75  66  73 CALM      29.87F
NEW YORK CITY  PTCLDY    80  71  74 SW8       29.91F
$$

ANZ081-ANZ082-ANZ150-NHZ014-MEZ023>029-300900-
COASTAL MARINE OBSERVATIONS

STATION/POSITION TIME  TEMP    WIND        PRES    WAVE
                       AIR SEA DIR/SP/G            HT/PER
                 (UTC) (F)     (DEG/KT/KT) (MB)    (FT/S)
MOUNT DESERT ROC 0800   61      40/  6/  6 1011.5F
MATINICUS ROCK   0700   66     170/  8/  8 1011.1R
ISLE OF SHOALS   0700   76     250/ 11/ 12 1010.7R
JEFFREYS LEDGE   0703      66                N/A     3/ 8
CASHES LEDGE BUO 0750   67                 1011.0S   3/ 9
GEORGES BANK BUO 0750   67 65  250/ 12/ 14 1012.6F   3/11
$$

.............KEY..............
   WCI - WIND CHILL
   TC  - TEMPERATURE IN CELSIUS
   VSB - VISIBILITY IN MILES
   HX  - HEAT INDEX
   FAIR- INDICATES FEW OR NO CLOUDS BELOW 12,000 FT, WITH NO
         SIGNIFICANT WEATHER AND/OR OBSTRUCTIONS TO VISIBILITY.





USA.gov is the U.S. government's official web portal to all federal, state and local government web resources and services.